[[{"header":{"parameterUnit":"m.s-1","parameterCategory":2,"la1":30.2991,"la2":30.254,"lo1":-89.0895,"lo2":-89.0444,"dy":0.0017,"dx":0.0017,"nx":28,"ny":28,"refTime":"2024-08-11T21:00:00:Z","depth":"0","parameterNumber":2,"parameterNumberName":"U-component_of_CURRENTS"},"data":[0,0,0,0,0,0,0,0,0,0,0,0,0,0,0,0,0,0,0,0,0,0,0,0,0,0,0,0,0,0,0,0,0,0,0,0,0,0,0,0,0,0,0,0,0,0,0,0,0,0,0,0,0,0,0,0,0,0,0.3161,0.3161,0,0.3192,0.3192,0.3192,0.318,0.318,0.318,0.3179,0.3254,0.3257,0.3259,0,0,0,0,0,0,0,0,0,0,0,0,0,0.3103,0.3103,0.3161,0.3161,0.3162,0.3192,0.3192,0.3192,0.318,0.318,0.318,0.3179,0.3254,0.3256,0.3259,0,0,0,0,0,0,0,0,0,0,0,0,0,0.3126,0.3103,0.316,0.3163,0.3164,0.3192,0.3192,0.3192,0.3181,0.318,0.318,0.3179,0.3253,0.3256,0.326,0.3291,0,0,0.327,0.3272,0,0,0,0,0,0,0,0,0.3125,0.3128,0.3162,0.3163,0.3164,0.3185,0.3199,0.3229,0.3181,0.317,0.3179,0.3179,0.3238,0.3243,0.3244,0.3295,0.3298,0.327,0.3273,0.3274,0.3275,0,0,0,0,0,0,0,0.3123,0.3127,0.3169,0.3163,0.3164,0.3167,0.3169,0.3204,0.3204,0.3171,0.3171,0.3181,0.3239,0.324,0.3246,0.3299,0.327,0.3273,0.3276,0.3277,0.3454,0.3456,0,0,0,0,0,0,0.3128,0.3125,0.3168,0.317,0.3147,0.3169,0.3171,0.3176,0.3203,0.3207,0.3182,0.3181,0.3235,0.3241,0.3248,0.3317,0.3274,0.3277,0.3279,0.3451,0.3454,0.3457,0,0,0,0,0,0,0.3126,0.3131,0.3167,0.3152,0.3157,0.317,0.3176,0.3177,0.3179,0.3211,0.3216,0.3183,0.3234,0.3243,0.3292,0.3319,0.3279,0.3282,0.3448,0.3452,0.3456,0.3437,0,0,0,0,0,0,0.3124,0.313,0.3133,0.3152,0.3158,0.3182,0.3177,0.3178,0.3188,0.3187,0.3215,0.3221,0.3235,0.3287,0.3295,0.3323,0.3285,0.3445,0.345,0.3454,0.3434,0.3439,0.3444,0,0,0,0,0,0.3122,0.3127,0.3133,0.3138,0.3162,0.3182,0.3185,0.319,0.3188,0.319,0.322,0.322,0.3325,0.3291,0.3301,0.333,0.3442,0.3448,0.3454,0.3432,0.3438,0.3444,0,0,0,0,0,0,0.3105,0.3128,0.3134,0.3146,0.3164,0.3182,0.3185,0.3193,0.3215,0.3216,0.3242,0.3251,0.3315,0.3331,0.3294,0.3403,0.3389,0.3397,0.3369,0.3376,0.3381,0.3384,0.3288,0,0,0,0,0,0.3105,0.311,0.3137,0.3146,0.3154,0.317,0.3179,0.3186,0.321,0.3217,0.3243,0.3287,0.3349,0.3365,0.3417,0.3459,0.3514,0.3493,0.3498,0.3502,0.3517,0.3636,0.3653,0.3476,0.3476,0.3476,0,0,0.3101,0.3115,0.3118,0.3142,0.3153,0.3166,0.3172,0.3186,0.3204,0.3226,0.3257,0.3309,0.337,0.3428,0.3458,0.3438,0.3581,0.3509,0.3511,0.3525,0.3644,0.3661,0.3676,0.348,0.348,0.3479,0,0,0.3095,0.3108,0.311,0.3125,0.3147,0.3161,0.3167,0.3191,0.3207,0.3246,0.3289,0.3356,0.3413,0.3472,0.3508,0.3577,0.3616,0.3597,0.3604,0.372,0.3735,0.3748,0.3826,0.3847,0.3582,0.3582,0.3582,0,0.3092,0.3099,0.3115,0.3123,0.3135,0.316,0.3168,0.3193,0.3232,0.3266,0.3255,0.3399,0.344,0.3543,0.3569,0.3587,0.3649,0.3563,0.3724,0.3739,0.3753,0.383,0.3853,0.3582,0.3582,0.3582,0.3582,0,0.309,0.3096,0.3099,0.3116,0.3131,0.3142,0.318,0.3207,0.323,0.3269,0.3369,0.3433,0.3516,0.355,0.3575,0.3707,0.3716,0.3724,0.3697,0.3769,0.3846,0.387,0.3582,0.3582,0.3582,0.3582,0,0,0.3081,0.3095,0.3095,0.3097,0.3128,0.3138,0.318,0.3235,0.3277,0.333,0.34,0.3512,0.3551,0.36,0.3651,0.3746,0.3893,0.3773,0.3779,0.3829,0.4135,0.4042,0.4059,0.393,0.3934,0.3938,0.414,0,0.3075,0.3079,0.3092,0.31,0.3105,0.3142,0.3179,0.3236,0.3292,0.3367,0.3463,0.3554,0.3568,0.3618,0.3715,0.3869,0.3961,0.3837,0.4077,0.4083,0.3975,0.4086,0.3844,0.3996,0.4164,0.4168,0.4171,0,0.3071,0.3074,0.3076,0.3093,0.31,0.3112,0.3178,0.3218,0.3338,0.3386,0.3486,0.3567,0.3723,0.3718,0.3985,0.3907,0.4023,0.4124,0.4134,0.4074,0.4037,0.3959,0.4035,0.3868,0.4209,0.4206,0.4204,0,0.3054,0.3062,0.306,0.3065,0.3094,0.311,0.3136,0.323,0.3278,0.3416,0.3474,0.3643,0.374,0.3922,0.4099,0.4072,0.4384,0.4369,0.439,0.4383,0.4238,0.421,0.4164,0.4568,0.4567,0.4567,0.4566,0,0.3046,0.3044,0.3048,0.3048,0.3054,0.3087,0.3126,0.3182,0.328,0.3354,0.3482,0.3579,0.3805,0.3988,0.414,0.4332,0.4417,0.4425,0.4448,0.4222,0.4192,0.4088,0.4015,0.4574,0.4572,0.4571,0.457,0,0.3031,0.3035,0.303,0.3043,0.3045,0.3053,0.3092,0.3133,0.323,0.3334,0.3385,0.3581,0.3808,0.4007,0.4312,0.4373,0.4438,0.4617,0.4311,0.4293,0.412,0.4055,0.4019,0.3925,0.4684,0.4683,0.4683,0,0.3024,0.3018,0.3014,0.3004,0.3005,0.3017,0.303,0.3102,0.3148,0.3335,0.3387,0.362,0.376,0.4123,0.4292,0.4522,0.4402,0.4415,0.4319,0.4097,0.4045,0.3931,0.3847,0.4126,0.412,0.4116,0.4113,0,0.3008,0.3005,0.2999,0.2978,0.2972,0.296,0.2984,0.301,0.3118,0.3212,0.3361,0.3493,0.3789,0.3902,0.4156,0.4273,0.4134,0.4334,0.4202,0.3689,0.347,0.339,0.3986,0.4075,0.4078,0.4081,0.4083,0.4085,0.2994,0.2981,0.2968,0.2945,0.2925,0.2894,0.2878,0.293,0.2988,0.3113,0.3274,0.34,0.3526,0.3842,0.3938,0.3849,0.393,0.3735,0.3708,0.364,0.3431,0.3921,0.3966,0.3969,0.3971,0.3974,0.3976,0,0.2968,0.2952,0.2931,0.2881,0.2827,0.2839,0.2836,0.2818,0.2862,0.2999,0.3118,0.3156,0.3208,0.3308,0.3309,0.3226,0.3153,0.312,0.288,0.2861,0.3377,0.3226,0.299,0.299,0.299,0.299,0.299,0.2991,0.2954,0.292,0.2904,0.2797,0.2753,0.2665,0.265,0.2648,0.2699,0.2725,0.2732,0.2804,0.2831,0.279,0.267,0.2639,0.2472,0.2344,0.2432,0.2725,0.2778,0.2829,0.2669,0.2319,0.2319,0.1776,0.1771,0.1767]},{"header":{"parameterUnit":"m.s-1","parameterCategory":2,"la1":30.2991,"la2":30.254,"lo1":-89.0895,"lo2":-89.0444,"dy":0.0017,"dx":0.0017,"nx":28,"ny":28,"refTime":"2024-08-11T21:00:00:Z","depth":"0","parameterNumber":3,"parameterNumberName":"V-component_of_CURRENTS"},"data":[0,0,0,0,0,0,0,0,0,0,0,0,0,0,0,0,0,0,0,0,0,0,0,0,0,0,0,0,0,0,0,0,0,0,0,0,0,0,0,0,0,0,0,0,0,0,0,0,0,0,0,0,0,0,0,0,0,0,0.1119,0.1119,0,0.1116,0.1115,0.1115,0.1075,0.1074,0.1073,0.1073,0.102,0.1019,0.1019,0,0,0,0,0,0,0,0,0,0,0,0,0,0.1035,0.1037,0.1119,0.1119,0.1119,0.1116,0.1115,0.1115,0.1075,0.1074,0.1073,0.1072,0.102,0.1019,0.1019,0,0,0,0,0,0,0,0,0,0,0,0,0,0.1053,0.1038,0.1119,0.1101,0.1099,0.1116,0.1115,0.1115,0.1075,0.1074,0.1073,0.1072,0.1021,0.102,0.1018,0.1035,0,0,0.1015,0.1015,0,0,0,0,0,0,0,0,0.1052,0.1056,0.1103,0.1102,0.1101,0.1097,0.1067,0.1087,0.1076,0.1082,0.1073,0.1071,0.1044,0.1041,0.1039,0.1033,0.103,0.1015,0.1015,0.1014,0.1014,0,0,0,0,0,0,0,0.1051,0.1056,0.1115,0.1104,0.1102,0.1074,0.1076,0.107,0.1066,0.1081,0.1079,0.1083,0.1042,0.1041,0.1038,0.103,0.1015,0.1014,0.1014,0.1013,0.1044,0.1046,0,0,0,0,0,0,0.1062,0.1055,0.1115,0.1115,0.1076,0.1077,0.1079,0.1097,0.1067,0.1063,0.1084,0.1081,0.1043,0.1039,0.1036,0.1075,0.1014,0.1013,0.1013,0.1043,0.1045,0.1046,0,0,0,0,0,0,0.106,0.1068,0.1115,0.1086,0.109,0.1081,0.1101,0.1098,0.1094,0.1071,0.1064,0.1084,0.1042,0.1037,0.1046,0.1072,0.1013,0.1012,0.1041,0.1044,0.1046,0.114,0,0,0,0,0,0,0.1058,0.1068,0.1084,0.1087,0.1092,0.1133,0.1102,0.1098,0.11,0.1096,0.1069,0.1063,0.1041,0.1048,0.1045,0.1069,0.1011,0.1039,0.1042,0.1045,0.1135,0.1145,0.1154,0,0,0,0,0,0.1055,0.1084,0.1085,0.1092,0.1117,0.1135,0.1135,0.1121,0.1102,0.1111,0.1098,0.1064,0.1063,0.1049,0.1045,0.107,0.1038,0.1041,0.1045,0.1131,0.1144,0.1154,0,0,0,0,0,0,0.1052,0.1083,0.1084,0.112,0.1131,0.1129,0.1138,0.1127,0.1124,0.1119,0.1086,0.1081,0.1098,0.1073,0.1059,0.1086,0.1043,0.1046,0.111,0.1122,0.1131,0.1138,0.101,0,0,0,0,0,0.1063,0.1094,0.1112,0.1139,0.1149,0.1144,0.1149,0.1143,0.1141,0.1138,0.1124,0.111,0.111,0.1107,0.1101,0.1119,0.1073,0.1131,0.114,0.1148,0.1152,0.1116,0.1122,0.1057,0.1057,0.1057,0,0,0.1069,0.109,0.1107,0.1141,0.1146,0.1173,0.1144,0.116,0.118,0.1134,0.1157,0.1144,0.1123,0.1146,0.115,0.1127,0.1141,0.1152,0.1159,0.1159,0.112,0.1126,0.1131,0.1059,0.1059,0.1058,0,0,0.1091,0.1117,0.1147,0.1166,0.1188,0.1193,0.1201,0.1211,0.1214,0.1239,0.1213,0.1221,0.1216,0.1214,0.1208,0.1266,0.1194,0.1259,0.1311,0.1277,0.1281,0.1285,0.1225,0.1223,0.1262,0.1262,0.1262,0,0.1089,0.114,0.1156,0.1189,0.1211,0.1207,0.1241,0.1251,0.1262,0.128,0.1256,0.1268,0.125,0.1278,0.13,0.1288,0.1242,0.1271,0.1288,0.1291,0.1293,0.1231,0.1227,0.1267,0.1266,0.1266,0.1265,0,0.1134,0.1176,0.1196,0.1243,0.1269,0.1299,0.1323,0.135,0.1353,0.136,0.139,0.137,0.1372,0.1373,0.1354,0.1372,0.1325,0.1305,0.1258,0.1305,0.1236,0.1231,0.1274,0.1272,0.1271,0.127,0,0,0.1118,0.121,0.1215,0.1254,0.1303,0.133,0.1384,0.1432,0.147,0.1472,0.1513,0.1513,0.1492,0.1484,0.1458,0.1435,0.1412,0.1381,0.1377,0.132,0.1309,0.1277,0.1266,0.1389,0.1389,0.1389,0.1252,0,0.1142,0.1221,0.1261,0.1335,0.1379,0.1416,0.147,0.1514,0.1539,0.1581,0.1565,0.1587,0.1535,0.1539,0.1509,0.1454,0.1402,0.1449,0.1275,0.1269,0.1233,0.1261,0.123,0.1106,0.1246,0.1245,0.1244,0,0.1166,0.1222,0.1302,0.1402,0.1425,0.1467,0.1559,0.1606,0.1666,0.1687,0.1698,0.1681,0.1673,0.161,0.1504,0.1533,0.1421,0.1357,0.135,0.1283,0.1227,0.1084,0.1089,0.0931,0.1234,0.1235,0.1235,0,0.115,0.1249,0.1318,0.135,0.1457,0.1504,0.1558,0.1635,0.1692,0.1748,0.1784,0.1759,0.1748,0.1634,0.1512,0.1499,0.1379,0.1337,0.1187,0.1182,0.1104,0.1093,0.0934,0.1224,0.1224,0.1224,0.1225,0,0.1165,0.1217,0.1317,0.1355,0.1443,0.1511,0.1602,0.1662,0.1748,0.1822,0.1822,0.1863,0.1752,0.1682,0.1539,0.1361,0.1385,0.1197,0.1153,0.1135,0.113,0.0946,0.0899,0.1219,0.122,0.1221,0.1222,0,0.1142,0.1207,0.1289,0.1402,0.144,0.1499,0.163,0.1703,0.1776,0.1871,0.1894,0.1931,0.1854,0.172,0.1548,0.1395,0.1148,0.1147,0.113,0.1087,0.0799,0.0761,0.0584,0.0554,0.0951,0.095,0.0948,0,0.114,0.1182,0.1306,0.1359,0.1411,0.1509,0.1592,0.1703,0.1788,0.1915,0.1967,0.1947,0.1957,0.1712,0.1463,0.1204,0.1082,0.097,0.0941,0.0782,0.0705,0.0684,0.0671,0.0858,0.0856,0.0854,0.0853,0,0.1134,0.1175,0.1245,0.1353,0.144,0.1553,0.1673,0.1747,0.1887,0.1975,0.2088,0.2115,0.1918,0.1695,0.136,0.1167,0.0892,0.0928,0.0767,0.063,0.0591,0.0542,0.0933,0.0839,0.0841,0.0842,0.0842,0.0843,0.1117,0.1162,0.1254,0.1354,0.1461,0.1592,0.1676,0.181,0.1951,0.2101,0.2151,0.2195,0.1874,0.1445,0.1204,0.07,0.0768,0.0521,0.0486,0.0476,0.0461,0.0821,0.0686,0.0686,0.0687,0.0687,0.0687,0,0.1098,0.1164,0.1256,0.1383,0.1489,0.156,0.1735,0.1825,0.1975,0.2121,0.2224,0.2045,0.1656,0.1244,0.0596,0.0294,0.0237,0.0138,0.0084,0.0095,0.0389,0.04,0.0193,0.0193,0.0194,0.0194,0.0194,0.0194,0.1092,0.1164,0.1225,0.1381,0.1475,0.1611,0.1709,0.185,0.1975,0.2081,0.208,0.2087,0.1707,0.0705,0.0012,-0.0118,-0.0249,-0.0288,-0.0322,-0.0159,-0.0127,-0.0096,-0.0101,-0.0408,-0.0409,-0.06,-0.0602,-0.0604]}],[{"header":{"parameterUnit":"m.s-1","parameterCategory":2,"la1":30.2991,"la2":30.254,"lo1":-89.0895,"lo2":-89.0444,"dy":0.0017,"dx":0.0017,"nx":28,"ny":28,"refTime":"2024-08-11T21:00:00:Z","depth":"2","parameterNumber":2,"parameterNumberName":"U-component_of_CURRENTS"},"data":[0,0,0,0,0,0,0,0,0,0,0,0,0,0,0,0,0,0,0,0,0,0,0,0,0,0,0,0,0,0,0,0,0,0,0,0,0,0,0,0,0,0,0,0,0,0,0,0,0,0,0,0,0,0,0,0,0,0,0.2796,0.2797,0,0.2805,0.2804,0.2804,0.2789,0.2789,0.2788,0.2788,0.2789,0.2789,0.2789,0,0,0,0,0,0,0,0,0,0,0,0,0,0.2752,0.2753,0.2796,0.2797,0.2797,0.2805,0.2804,0.2804,0.2789,0.2789,0.2788,0.2788,0.2789,0.2789,0.2789,0,0,0,0,0,0,0,0,0,0,0,0,0,0.2763,0.2753,0.2796,0.2794,0.2794,0.2805,0.2804,0.2804,0.2789,0.2789,0.2788,0.2788,0.2789,0.2789,0.2789,0.2794,0,0,0.279,0.279,0,0,0,0,0,0,0,0,0.2762,0.2764,0.2794,0.2794,0.2794,0.2799,0.279,0.2802,0.2789,0.2786,0.2788,0.2788,0.2795,0.2795,0.279,0.2794,0.2794,0.279,0.279,0.279,0.279,0,0,0,0,0,0,0,0.2761,0.2763,0.2795,0.2794,0.2795,0.2788,0.2789,0.2791,0.2788,0.2786,0.2786,0.2794,0.2794,0.279,0.279,0.2794,0.279,0.279,0.279,0.279,0.2848,0.285,0,0,0,0,0,0,0.2771,0.2763,0.2795,0.2796,0.2783,0.2789,0.279,0.2794,0.2788,0.2788,0.2795,0.2794,0.279,0.279,0.279,0.2823,0.279,0.279,0.2791,0.2847,0.2849,0.285,0,0,0,0,0,0,0.277,0.2773,0.2794,0.2783,0.2786,0.2791,0.2795,0.2795,0.2795,0.2795,0.2794,0.2796,0.279,0.279,0.2806,0.2822,0.2791,0.2791,0.2845,0.2847,0.2849,0.287,0,0,0,0,0,0,0.2768,0.2773,0.2777,0.2784,0.2787,0.2806,0.2796,0.2795,0.2802,0.2801,0.2796,0.2796,0.279,0.2806,0.2807,0.2821,0.2791,0.2843,0.2846,0.2849,0.2867,0.2872,0.2877,0,0,0,0,0,0.2766,0.2771,0.2777,0.2781,0.2793,0.2807,0.2808,0.2807,0.2802,0.2805,0.2809,0.2796,0.2824,0.2807,0.2807,0.2823,0.2842,0.2845,0.2849,0.2865,0.2871,0.2877,0,0,0,0,0,0,0.275,0.2771,0.2777,0.2787,0.2801,0.2806,0.281,0.2811,0.2815,0.2815,0.2809,0.281,0.2836,0.2829,0.2811,0.2851,0.2833,0.2836,0.2846,0.2852,0.2856,0.287,0.2791,0,0,0,0,0,0.2752,0.2762,0.2782,0.279,0.2799,0.2806,0.2811,0.2814,0.2821,0.2822,0.2821,0.2829,0.2849,0.2849,0.2864,0.2875,0.2904,0.2889,0.2894,0.2897,0.2911,0.2976,0.2988,0.2861,0.2861,0.2861,0,0,0.2748,0.2762,0.2767,0.2788,0.2797,0.2806,0.2807,0.282,0.2828,0.2823,0.283,0.2848,0.286,0.2882,0.2892,0.2874,0.2949,0.2901,0.2904,0.2916,0.2981,0.2994,0.3005,0.2863,0.2863,0.2862,0,0,0.2744,0.276,0.2766,0.2779,0.2801,0.281,0.2817,0.2829,0.2835,0.2847,0.2861,0.2894,0.2894,0.2921,0.2931,0.2972,0.2981,0.2971,0.2991,0.3055,0.3066,0.3076,0.3127,0.3142,0.2962,0.2962,0.2962,0,0.2739,0.2746,0.2769,0.2778,0.2786,0.2813,0.2817,0.2832,0.2848,0.2863,0.2852,0.2907,0.2917,0.2968,0.2985,0.2983,0.3016,0.2963,0.3061,0.3071,0.3081,0.3132,0.3148,0.2963,0.2963,0.2963,0.2963,0,0.2737,0.2743,0.2748,0.2768,0.2783,0.2793,0.2822,0.2842,0.2852,0.287,0.2921,0.2947,0.2981,0.2993,0.2997,0.3077,0.3077,0.3067,0.3043,0.3095,0.3145,0.3161,0.2965,0.2964,0.2964,0.2964,0,0,0.2723,0.2741,0.2742,0.2742,0.2776,0.2784,0.2817,0.2853,0.2878,0.2907,0.2947,0.2998,0.3026,0.3044,0.3067,0.312,0.3219,0.3121,0.3124,0.3168,0.3358,0.3155,0.3153,0.3224,0.3227,0.3229,0.3364,0,0.2711,0.271,0.273,0.2731,0.2733,0.2772,0.2798,0.284,0.2876,0.2925,0.2986,0.3037,0.304,0.3071,0.3127,0.3207,0.3263,0.3183,0.3306,0.331,0.3119,0.3165,0.2844,0.2919,0.338,0.3383,0.3385,0,0.2701,0.27,0.2693,0.2707,0.2713,0.2725,0.2776,0.2804,0.2894,0.2929,0.3002,0.3056,0.3163,0.315,0.3307,0.3256,0.3314,0.3364,0.337,0.3185,0.3136,0.2943,0.2931,0.3412,0.3409,0.3407,0.3406,0,0.2668,0.2674,0.2663,0.2667,0.2695,0.2707,0.2732,0.2805,0.2839,0.2952,0.2999,0.3115,0.3184,0.3286,0.3391,0.3363,0.3555,0.3523,0.3399,0.3386,0.3137,0.3094,0.3637,0.3637,0.3637,0.3636,0.3636,0,0.2644,0.2635,0.2645,0.2638,0.2637,0.2674,0.2699,0.275,0.2835,0.2894,0.3003,0.308,0.3225,0.3343,0.3425,0.3455,0.3585,0.3414,0.3406,0.3131,0.3089,0.3532,0.3518,0.3641,0.364,0.3639,0.3638,0,0.2608,0.2615,0.2601,0.2616,0.262,0.2622,0.2666,0.2694,0.2786,0.2875,0.2924,0.3082,0.3219,0.3346,0.352,0.3466,0.3544,0.3527,0.3183,0.3127,0.3327,0.3313,0.3383,0.3377,0.3372,0.3368,0.3364,0,0.2587,0.2576,0.2574,0.2565,0.2568,0.2578,0.2592,0.2665,0.2706,0.2876,0.2922,0.3081,0.3137,0.3279,0.3231,0.3279,0.3483,0.3025,0.2883,0.3315,0.3302,0.3296,0.3289,0.259,0.258,0.2572,0.2566,0,0.2546,0.2548,0.2537,0.2516,0.2514,0.2512,0.2542,0.2563,0.2675,0.2742,0.2854,0.2907,0.2955,0.2813,0.2823,0.2823,0.2972,0.2855,0.3442,0.2666,0.2566,0.2553,0.2573,0.2496,0.2503,0.2508,0.2512,0.2515,0.2517,0.2497,0.2482,0.2456,0.2445,0.2432,0.2404,0.2451,0.2482,0.2488,0.2626,0.2577,0.2541,0.2336,0.2312,0.2299,0.2475,0.2402,0.2428,0.2462,0.2307,0.2199,0.2034,0.2038,0.2042,0.2045,0.2048,0,0.246,0.2445,0.2421,0.2367,0.2308,0.2347,0.2349,0.2287,0.2267,0.2254,0.2215,0.1945,0.1797,0.1898,0.1689,0.1628,0.1639,0.1649,0.166,0.1725,0.1785,0.16,0.1138,0.1136,0.1135,0.1134,0,0,0.243,0.2377,0.2354,0.2232,0.2199,0.2098,0.2077,0.1999,0.1955,0.177,0.167,0.16,0.1739,0.1395,0.1316,0.123,0.1492,0.118,0.1886,0.1959,0.2018,0.2165,0.1943,0,0,0,0,0]},{"header":{"parameterUnit":"m.s-1","parameterCategory":2,"la1":30.2991,"la2":30.254,"lo1":-89.0895,"lo2":-89.0444,"dy":0.0017,"dx":0.0017,"nx":28,"ny":28,"refTime":"2024-08-11T21:00:00:Z","depth":"2","parameterNumber":3,"parameterNumberName":"V-component_of_CURRENTS"},"data":[0,0,0,0,0,0,0,0,0,0,0,0,0,0,0,0,0,0,0,0,0,0,0,0,0,0,0,0,0,0,0,0,0,0,0,0,0,0,0,0,0,0,0,0,0,0,0,0,0,0,0,0,0,0,0,0,0,0,-0.0129,-0.0129,0,-0.0166,-0.0167,-0.0167,-0.0201,-0.0202,-0.0202,-0.0203,-0.0282,-0.0283,-0.0285,0,0,0,0,0,0,0,0,0,0,0,0,0,-0.0104,-0.0105,-0.0129,-0.0129,-0.013,-0.0166,-0.0167,-0.0167,-0.0201,-0.0202,-0.0202,-0.0203,-0.0281,-0.0283,-0.0285,0,0,0,0,0,0,0,0,0,0,0,0,0,-0.0126,-0.0105,-0.0129,-0.0151,-0.0154,-0.0166,-0.0167,-0.0167,-0.0201,-0.0202,-0.0202,-0.0203,-0.028,-0.0283,-0.0285,-0.0289,0,0,-0.0293,-0.0294,0,0,0,0,0,0,0,0,-0.0124,-0.0127,-0.0148,-0.015,-0.0152,-0.018,-0.0187,-0.021,-0.0201,-0.0183,-0.0203,-0.0203,-0.0251,-0.0256,-0.0261,-0.0292,-0.0296,-0.0294,-0.0295,-0.0296,-0.0297,0,0,0,0,0,0,0,-0.0123,-0.0125,-0.0144,-0.0148,-0.0151,-0.0165,-0.0169,-0.0191,-0.0214,-0.0185,-0.0187,-0.0191,-0.0253,-0.0258,-0.0263,-0.0297,-0.0293,-0.0296,-0.0297,-0.0298,-0.0321,-0.032,0,0,0,0,0,0,-0.0117,-0.0124,-0.0143,-0.0145,-0.014,-0.0165,-0.0169,-0.017,-0.0213,-0.022,-0.0191,-0.0193,-0.0254,-0.026,-0.0266,-0.0239,-0.0296,-0.0299,-0.03,-0.0322,-0.0321,-0.032,0,0,0,0,0,0,-0.0116,-0.0118,-0.0141,-0.0135,-0.0139,-0.0165,-0.0166,-0.0171,-0.0168,-0.0217,-0.0225,-0.0183,-0.0254,-0.0263,-0.0266,-0.0244,-0.03,-0.0302,-0.0323,-0.0322,-0.032,-0.0207,0,0,0,0,0,0,-0.0115,-0.0117,-0.0111,-0.0135,-0.0139,-0.0134,-0.0166,-0.0171,-0.0171,-0.0173,-0.0213,-0.0221,-0.0256,-0.0262,-0.0269,-0.0249,-0.0304,-0.0324,-0.0323,-0.0321,-0.0212,-0.0202,-0.0193,0,0,0,0,0,-0.0114,-0.0104,-0.011,-0.0113,-0.0132,-0.0133,-0.0136,-0.0157,-0.0169,-0.0158,-0.0181,-0.0219,-0.0256,-0.0262,-0.0271,-0.0251,-0.0325,-0.0323,-0.0321,-0.0216,-0.0204,-0.0193,0,0,0,0,0,0,-0.0096,-0.0107,-0.0115,-0.011,-0.0114,-0.0138,-0.0133,-0.0145,-0.0154,-0.0155,-0.0202,-0.0211,-0.0208,-0.0244,-0.025,-0.0254,-0.03,-0.0299,-0.0217,-0.0206,-0.0197,-0.0185,-0.0306,0,0,0,0,0,-0.0087,-0.0079,-0.0093,-0.0087,-0.0086,-0.0105,-0.0107,-0.0116,-0.013,-0.0134,-0.016,-0.0188,-0.0207,-0.0216,-0.0241,-0.0237,-0.0275,-0.0234,-0.0224,-0.0216,-0.0212,-0.0251,-0.0244,-0.0313,-0.0313,-0.0313,0,0,-0.008,-0.0084,-0.008,-0.0082,-0.0088,-0.0072,-0.0107,-0.0099,-0.0083,-0.0142,-0.0126,-0.0155,-0.0199,-0.0194,-0.0197,-0.022,-0.0211,-0.0213,-0.0206,-0.0207,-0.0248,-0.0241,-0.0235,-0.0312,-0.0312,-0.0312,0,0,-0.0055,-0.0061,-0.0043,-0.0037,-0.0035,-0.0042,-0.0033,-0.0042,-0.0043,-0.003,-0.0068,-0.0078,-0.0106,-0.0129,-0.0147,-0.0102,-0.016,-0.0112,-0.0054,-0.009,-0.0085,-0.0081,-0.0096,-0.0095,-0.0108,-0.0108,-0.0108,0,-0.0047,-0.0024,-0.0037,-0.0013,-0.0,-0.0021,0.001,0.0007,0.0001,0.0008,-0.0011,-0.0041,-0.0076,-0.0076,-0.0058,-0.008,-0.0105,-0.0089,-0.0077,-0.0074,-0.0072,-0.0089,-0.0089,-0.0102,-0.0103,-0.0103,-0.0104,0,-0.0006,0.0017,0.003,0.0056,0.007,0.0093,0.0093,0.0109,0.0106,0.0098,0.0104,0.0061,0.0042,0.003,0.0002,0.0006,-0.0017,-0.0059,-0.0102,-0.0058,-0.0079,-0.0081,-0.0094,-0.0096,-0.0098,-0.0099,0,0,-0.0001,0.005,0.0056,0.0089,0.0113,0.013,0.0166,0.019,0.0216,0.02,0.0227,0.0193,0.0168,0.0145,0.0105,0.0075,0.0079,0.0026,0.0021,0.0018,0.0017,0.0005,0.0001,0.004,0.0039,0.0039,0.0004,0,0.0036,0.0101,0.0116,0.0183,0.0219,0.0228,0.0266,0.0286,0.0288,0.0309,0.0265,0.027,0.0211,0.0212,0.0175,0.0104,0.0077,0.0094,-0.0033,-0.0036,-0.0047,-0.0001,-0.0019,-0.0052,0.0002,0.0002,0.0002,0,0.0071,0.0114,0.0189,0.0263,0.028,0.0317,0.0378,0.0411,0.0426,0.0431,0.042,0.0383,0.0358,0.0292,0.0194,0.0209,0.0127,0.0061,0.0057,0.0001,-0.0052,-0.0094,-0.0058,-0.0002,-0.0001,-0.0001,-0.0001,0,0.0089,0.0166,0.0232,0.0256,0.0331,0.0372,0.0413,0.0447,0.0486,0.0508,0.0534,0.0482,0.0471,0.0361,0.0242,0.0217,0.0126,0.0067,-0.0023,-0.0024,-0.0088,-0.0094,-0.0013,-0.0013,-0.0012,-0.0012,-0.0012,0,0.0124,0.0177,0.0249,0.0286,0.0373,0.0412,0.0495,0.0528,0.0577,0.0639,0.0597,0.0632,0.0485,0.0418,0.0285,0.0147,0.0158,0.0001,-0.0033,-0.0046,-0.0048,-0.0054,-0.0059,-0.0014,-0.0013,-0.0013,-0.0013,0,0.0139,0.0183,0.0263,0.0352,0.0386,0.0449,0.0552,0.0611,0.0653,0.0733,0.075,0.0743,0.0673,0.0519,0.0355,0.0215,0.0074,0.0015,0.0027,-0.0005,-0.0065,-0.0063,-0.0092,-0.0092,-0.0093,-0.0094,-0.0094,0,0.0155,0.0199,0.0304,0.0358,0.0403,0.0497,0.0572,0.0644,0.0711,0.0811,0.0859,0.0832,0.0831,0.0602,0.0347,0.0118,0.0097,-0.0046,-0.011,-0.0042,-0.0072,-0.007,-0.0067,-0.0142,-0.0143,-0.0144,-0.0144,0,0.0191,0.0225,0.0295,0.0396,0.0482,0.0583,0.0691,0.0759,0.0862,0.0949,0.1064,0.1077,0.086,0.0627,0.0307,0.015,-0.0012,-0.0067,-0.0002,-0.0115,-0.0092,-0.0121,-0.0116,-0.015,-0.0149,-0.0149,-0.0149,-0.0148,0.0218,0.0268,0.0353,0.0451,0.0548,0.0672,0.0763,0.0895,0.104,0.1147,0.1141,0.1133,0.0862,0.0431,0.0206,-0.0037,-0.0051,-0.0169,-0.0166,-0.0163,-0.0158,-0.0138,-0.0202,-0.0202,-0.0201,-0.0201,-0.0201,0,0.0256,0.0314,0.0404,0.0528,0.0634,0.0678,0.0847,0.0962,0.1158,0.1191,0.1232,0.0949,0.0689,0.0442,0.0051,-0.0184,-0.0196,-0.0223,-0.0212,-0.0207,-0.0203,-0.0199,-0.0253,-0.0253,-0.0254,-0.0254,0,0,0.0282,0.0367,0.0415,0.0582,0.0667,0.0811,0.0912,0.1108,0.1191,0.1243,0.118,0.0988,0.0722,0.0414,0.0115,-0.0055,-0.0064,-0.0079,-0.0027,0.0023,0.0032,-0.0177,-0.0165,0,0,0,0,0]}],[{"header":{"parameterUnit":"m.s-1","parameterCategory":2,"la1":30.2991,"la2":30.254,"lo1":-89.0895,"lo2":-89.0444,"dy":0.0017,"dx":0.0017,"nx":28,"ny":28,"refTime":"2024-08-11T21:00:00:Z","depth":"4","parameterNumber":2,"parameterNumberName":"U-component_of_CURRENTS"},"data":[0,0,0,0,0,0,0,0,0,0,0,0,0,0,0,0,0,0,0,0,0,0,0,0,0,0,0,0,0,0,0,0,0,0,0,0,0,0,0,0,0,0,0,0,0,0,0,0,0,0,0,0,0,0,0,0,0,0,0.0281,0.0282,0,0.0383,0.0384,0.0385,0.0495,0.0496,0.0498,0.0499,0.0609,0.061,0.0612,0,0,0,0,0,0,0,0,0,0,0,0,0,0.0201,0.0202,0.028,0.0282,0.0283,0.0383,0.0384,0.0385,0.0495,0.0496,0.0498,0.05,0.0609,0.061,0.0612,0,0,0,0,0,0,0,0,0,0,0,0,0,0.0262,0.0202,0.028,0.0349,0.0357,0.0382,0.0384,0.0386,0.0494,0.0497,0.0499,0.0501,0.0608,0.061,0.0612,0.0579,0,0,0.0619,0.062,0,0,0,0,0,0,0,0,0.0259,0.0265,0.0338,0.0345,0.0353,0.0428,0.0396,0.0451,0.0494,0.0442,0.0499,0.0502,0.0547,0.0555,0.0569,0.0585,0.0589,0.0619,0.0621,0.0622,0.0622,0,0,0,0,0,0,0,0.0254,0.0262,0.0321,0.0339,0.0348,0.0383,0.0394,0.0407,0.0481,0.0447,0.0455,0.0465,0.0552,0.0566,0.0572,0.0591,0.0619,0.0621,0.0623,0.0623,0.0773,0.0776,0,0,0,0,0,0,0.0238,0.0257,0.0318,0.0324,0.031,0.0382,0.0395,0.0402,0.0481,0.0495,0.0463,0.047,0.0562,0.057,0.0577,0.0721,0.0622,0.0624,0.0625,0.0771,0.0774,0.0777,0,0,0,0,0,0,0.0236,0.0242,0.0314,0.0293,0.0305,0.0381,0.0388,0.0403,0.0482,0.0493,0.0508,0.0535,0.0564,0.0573,0.0654,0.0719,0.0625,0.0627,0.0768,0.0772,0.0775,0.0895,0,0,0,0,0,0,0.0233,0.024,0.0275,0.0292,0.0306,0.0373,0.0386,0.0403,0.048,0.0492,0.0558,0.0567,0.0566,0.0651,0.0657,0.0721,0.0628,0.0764,0.0769,0.0774,0.0887,0.0902,0.0915,0,0,0,0,0,0.0229,0.0254,0.0275,0.0285,0.0338,0.0374,0.0386,0.0447,0.0482,0.0526,0.0579,0.0568,0.0687,0.0655,0.0661,0.0727,0.0762,0.0768,0.0774,0.0881,0.0899,0.0915,0,0,0,0,0,0,0.0246,0.0268,0.0292,0.0327,0.037,0.0394,0.0444,0.0479,0.0554,0.0589,0.0599,0.0612,0.0704,0.0697,0.0662,0.0785,0.0723,0.0731,0.0803,0.082,0.0834,0.0857,0.063,0,0,0,0,0,0.0259,0.0283,0.0313,0.0348,0.0374,0.042,0.0456,0.0501,0.0549,0.0589,0.0645,0.0692,0.0719,0.0759,0.0785,0.0851,0.0809,0.0898,0.0912,0.0924,0.0947,0.0924,0.0937,0.0796,0.0796,0.0796,0,0,0.0271,0.0291,0.0307,0.0355,0.0394,0.0441,0.0451,0.0525,0.0586,0.0584,0.0717,0.0745,0.0746,0.0827,0.0868,0.0841,0.094,0.0931,0.0941,0.0959,0.0932,0.0945,0.0957,0.08,0.08,0.0799,0,0,0.0292,0.0333,0.036,0.0403,0.0475,0.0501,0.0535,0.0612,0.0677,0.0784,0.0792,0.0862,0.0941,0.0948,0.0953,0.1054,0.1008,0.1082,0.1182,0.116,0.1171,0.118,0.1131,0.1134,0.1096,0.1097,0.1097,0,0.0329,0.0354,0.038,0.0427,0.048,0.0533,0.0596,0.0649,0.0757,0.0815,0.0854,0.0982,0.0988,0.1042,0.1098,0.1085,0.1066,0.1117,0.1176,0.1184,0.1192,0.1139,0.1142,0.1103,0.1102,0.1102,0.1101,0,0.0351,0.0407,0.0433,0.0505,0.0565,0.0632,0.07,0.0789,0.0884,0.0946,0.1079,0.111,0.1191,0.12,0.1193,0.126,0.1226,0.1186,0.1129,0.1213,0.1152,0.1153,0.1112,0.111,0.1108,0.1107,0,0,0.0358,0.0437,0.0458,0.0516,0.0626,0.0674,0.0776,0.0878,0.0959,0.1095,0.1201,0.1284,0.1348,0.1358,0.1359,0.1358,0.1388,0.1332,0.1327,0.1276,0.1341,0.1199,0.1185,0.1374,0.1375,0.1376,0.1272,0,0.0391,0.0468,0.0518,0.0635,0.0686,0.078,0.0872,0.0979,0.1079,0.1194,0.1256,0.1371,0.1389,0.1462,0.1469,0.141,0.14,0.1419,0.1276,0.1271,0.1128,0.1184,0.138,0.1272,0.1272,0.1272,0.1272,0,0.0403,0.0457,0.0567,0.0702,0.0744,0.0859,0.102,0.111,0.124,0.1324,0.1447,0.1499,0.1573,0.1558,0.153,0.1557,0.1485,0.1417,0.141,0.1241,0.1131,0.1175,0.1272,0.1272,0.1272,0.1272,0.1272,0,0.0365,0.0499,0.0594,0.0645,0.0802,0.0928,0.1051,0.1195,0.1288,0.1442,0.1518,0.1604,0.1667,0.1623,0.1512,0.156,0.1397,0.142,0.1208,0.1195,0.1298,0.1289,0.1372,0.1372,0.1372,0.1373,0.1373,0,0.0372,0.0452,0.0617,0.0677,0.0855,0.0977,0.1181,0.1285,0.1439,0.1493,0.1632,0.1611,0.1697,0.1605,0.1515,0.1337,0.1396,0.1236,0.1168,0.1349,0.1347,0.1296,0.1289,0.1369,0.137,0.137,0.1371,0,0.0332,0.0422,0.0542,0.0749,0.0849,0.1004,0.1292,0.1372,0.1543,0.1603,0.1666,0.1678,0.1554,0.1521,0.1376,0.1321,0.1153,0.1046,0.1203,0.1141,0.0987,0.0987,0.0909,0.0903,0.0899,0.0895,0.0891,0,0.0324,0.0365,0.0591,0.0701,0.0847,0.109,0.1214,0.1429,0.1459,0.1529,0.1474,0.1464,0.1421,0.1134,0.1083,0.094,0.0899,0.0876,0.1023,0.1003,0.0945,0.0953,0.0959,0.0884,0.0882,0.0881,0.088,0,0.0289,0.0373,0.0475,0.067,0.0859,0.1022,0.1202,0.1217,0.1334,0.149,0.132,0.127,0.1095,0.0986,0.0887,0.0748,0.096,0.0828,0.0841,0.0979,0.0971,0.092,0.0932,0.0863,0.0866,0.0867,0.0868,0,0.0282,0.0329,0.0439,0.0631,0.0821,0.0888,0.101,0.103,0.1112,0.1185,0.1043,0.0978,0.0997,0.086,0.068,0.0641,0.069,0.0748,0.0767,0.0785,0.079,0.0765,0.0542,0,0,0,0,0,0.0269,0.0278,0.0384,0.0552,0.0713,0.0815,0.0931,0.0997,0.1066,0.0939,0.1042,0.0853,0.0736,0.0642,0.0578,0.0581,0.0654,0.0504,0.0724,0.0771,0.079,0.0807,0,0,0,0,0,0,0.0244,0.0318,0.0321,0.0433,0.0521,0.0652,0.0713,0.075,0.0691,0.0775,0.0682,0.0832,0.0673,0.0763,0.0564,0.0554,0.0685,0.0503,0.0502,0.076,0.0778,0.0793,0.0817,0,0,0,0,0]},{"header":{"parameterUnit":"m.s-1","parameterCategory":2,"la1":30.2991,"la2":30.254,"lo1":-89.0895,"lo2":-89.0444,"dy":0.0017,"dx":0.0017,"nx":28,"ny":28,"refTime":"2024-08-11T21:00:00:Z","depth":"4","parameterNumber":3,"parameterNumberName":"V-component_of_CURRENTS"},"data":[0,0,0,0,0,0,0,0,0,0,0,0,0,0,0,0,0,0,0,0,0,0,0,0,0,0,0,0,0,0,0,0,0,0,0,0,0,0,0,0,0,0,0,0,0,0,0,0,0,0,0,0,0,0,0,0,0,0,0.0162,0.0162,0,0.0081,0.008,0.0079,0.0015,0.0014,0.0014,0.0013,-0.016,-0.0163,-0.0168,0,0,0,0,0,0,0,0,0,0,0,0,0,0.0232,0.0231,0.0163,0.0162,0.0161,0.0082,0.008,0.0079,0.0015,0.0014,0.0014,0.0013,-0.0158,-0.0163,-0.0168,0,0,0,0,0,0,0,0,0,0,0,0,0,0.018,0.0231,0.0163,0.012,0.0115,0.0082,0.008,0.0079,0.0015,0.0014,0.0014,0.0013,-0.0157,-0.0163,-0.0169,-0.019,0,0,-0.0187,-0.019,0,0,0,0,0,0,0,0,0.0183,0.0178,0.0127,0.0123,0.0118,0.0058,0.0041,-0.0015,0.0015,0.0052,0.0013,0.0012,-0.0094,-0.0105,-0.0119,-0.0198,-0.0206,-0.0188,-0.0192,-0.0194,-0.0196,0,0,0,0,0,0,0,0.0187,0.0181,0.0129,0.0126,0.0121,0.0095,0.0087,0.0031,-0.0018,0.0049,0.0044,0.0037,-0.0097,-0.0113,-0.0124,-0.0208,-0.0188,-0.0193,-0.0197,-0.0199,-0.0402,-0.0404,0,0,0,0,0,0,0.0202,0.0184,0.0132,0.0127,0.0151,0.0094,0.0085,0.0077,-0.0016,-0.0029,0.0038,0.0035,-0.0102,-0.0116,-0.013,-0.023,-0.0194,-0.02,-0.0204,-0.0401,-0.0403,-0.0405,0,0,0,0,0,0,0.0204,0.0198,0.0135,0.0155,0.0145,0.0094,0.0086,0.0076,0.0045,-0.0022,-0.0039,0.0015,-0.0103,-0.0122,-0.0209,-0.0235,-0.0203,-0.0208,-0.0399,-0.0401,-0.0404,-0.0387,0,0,0,0,0,0,0.0206,0.0199,0.0197,0.0156,0.0144,0.011,0.0086,0.0075,0.0044,0.0038,-0.0047,-0.0063,-0.0105,-0.0199,-0.0215,-0.0243,-0.0213,-0.0397,-0.04,-0.0403,-0.0385,-0.0388,-0.0391,0,0,0,0,0,0.0209,0.0213,0.0197,0.0191,0.0144,0.011,0.0102,0.0062,0.0043,0.003,-0.0042,-0.0061,-0.023,-0.0206,-0.0223,-0.0254,-0.0395,-0.0399,-0.0403,-0.0384,-0.0388,-0.0391,0,0,0,0,0,0,0.0241,0.0206,0.0187,0.018,0.0144,0.0099,0.0088,0.0058,-0.0005,-0.002,-0.0086,-0.0107,-0.0195,-0.0228,-0.0199,-0.0323,-0.0315,-0.0322,-0.0294,-0.0299,-0.0302,-0.027,-0.0218,0,0,0,0,0,0.0249,0.0242,0.02,0.0192,0.0177,0.013,0.011,0.0079,0.0022,-0.0006,-0.0075,-0.0149,-0.0221,-0.0262,-0.0329,-0.0393,-0.0396,-0.0425,-0.0428,-0.043,-0.0419,-0.0447,-0.0451,-0.0417,-0.0417,-0.0417,0,0,0.0257,0.024,0.0234,0.0199,0.0169,0.0143,0.0115,0.0083,0.005,-0.0017,-0.0095,-0.0167,-0.0243,-0.0323,-0.0363,-0.0355,-0.0442,-0.0435,-0.0436,-0.0424,-0.0452,-0.0454,-0.0457,-0.042,-0.0419,-0.0419,0,0,0.0276,0.0256,0.0254,0.0225,0.0183,0.0151,0.014,0.0077,0.0039,-0.0042,-0.0103,-0.0186,-0.0296,-0.0353,-0.0395,-0.0453,-0.046,-0.0483,-0.047,-0.0498,-0.05,-0.0502,-0.0501,-0.0502,-0.048,-0.048,-0.048,0,0.029,0.0276,0.0247,0.0233,0.0209,0.0155,0.0135,0.0091,0.0,-0.0037,-0.0068,-0.0238,-0.0306,-0.0392,-0.0421,-0.0457,-0.0464,-0.0446,-0.0498,-0.05,-0.0502,-0.05,-0.0503,-0.0479,-0.0479,-0.0479,-0.0479,0,0.0293,0.0282,0.0278,0.0241,0.0211,0.0187,0.0125,0.0078,0.0018,-0.0036,-0.0144,-0.0242,-0.0332,-0.038,-0.0424,-0.0483,-0.0479,-0.0498,-0.0477,-0.0504,-0.0501,-0.0504,-0.0479,-0.0479,-0.0479,-0.0479,0,0,0.0323,0.029,0.0288,0.0275,0.0211,0.019,0.0135,0.0071,0.0041,-0.0068,-0.0119,-0.0263,-0.0309,-0.0358,-0.0426,-0.0465,-0.0495,-0.0487,-0.0489,-0.0464,-0.0534,-0.0493,-0.0491,-0.0521,-0.0522,-0.0522,-0.0522,0,0.0332,0.0326,0.0295,0.027,0.0255,0.0193,0.0156,0.0089,0.0018,-0.0046,-0.0151,-0.022,-0.03,-0.0335,-0.0396,-0.0482,-0.0502,-0.0491,-0.0531,-0.0532,-0.0474,-0.0493,-0.0524,-0.0524,-0.0525,-0.0525,-0.0525,0,0.033,0.0332,0.0329,0.0293,0.0281,0.0266,0.0202,0.0157,0.0064,0.0012,-0.0079,-0.0155,-0.0254,-0.0294,-0.043,-0.042,-0.0466,-0.052,-0.0522,-0.0486,-0.0495,-0.0499,-0.053,-0.0529,-0.0529,-0.0529,-0.0528,0,0.0362,0.0342,0.0352,0.0337,0.0297,0.0291,0.0262,0.0182,0.0161,0.0072,0.0051,-0.0091,-0.0139,-0.0246,-0.0383,-0.0398,-0.0506,-0.0534,-0.0528,-0.0525,-0.0566,-0.0565,-0.0581,-0.0581,-0.0581,-0.0581,-0.0581,0,0.0367,0.0377,0.0384,0.0387,0.0405,0.0349,0.0353,0.0299,0.0251,0.0211,0.0105,0.0027,-0.0128,-0.0228,-0.0348,-0.045,-0.0473,-0.0517,-0.0525,-0.056,-0.0558,-0.0567,-0.0565,-0.0581,-0.0581,-0.0581,-0.0581,0,0.0392,0.0401,0.0422,0.0418,0.0428,0.0443,0.0446,0.0434,0.0389,0.0341,0.0327,0.0147,-0.0007,-0.0134,-0.0306,-0.0376,-0.0488,-0.0501,-0.0503,-0.0513,-0.0491,-0.0489,-0.0492,-0.049,-0.0489,-0.0488,-0.0487,0,0.0397,0.0411,0.046,0.0499,0.0514,0.0542,0.0551,0.0515,0.0483,0.0366,0.0321,0.0202,0.0067,-0.0135,-0.0292,-0.0432,-0.0456,-0.0467,-0.0507,-0.0475,-0.0483,-0.0483,-0.0483,-0.0485,-0.0485,-0.0485,-0.0485,0,0.0392,0.043,0.046,0.0548,0.0595,0.0613,0.0608,0.0591,0.0503,0.0518,0.0325,0.0198,0.0043,-0.0159,-0.0216,-0.0354,-0.045,-0.0455,-0.0459,-0.0497,-0.0468,-0.0477,-0.0478,-0.048,-0.0481,-0.0481,-0.0482,0,0.0402,0.0426,0.0481,0.0559,0.064,0.0613,0.0608,0.054,0.0514,0.0395,0.031,0.0129,0.0037,-0.0121,-0.024,-0.0298,-0.033,-0.0345,-0.0355,-0.0361,-0.0332,-0.0276,-0.0228,0,0,0,0,0,0.0387,0.0403,0.0466,0.0518,0.0607,0.0631,0.0607,0.0574,0.0512,0.0408,0.0371,0.0211,0.0025,-0.0115,-0.0162,-0.0234,-0.0345,-0.0292,-0.0369,-0.0458,-0.0462,-0.0448,0,0,0,0,0,0,0.037,0.0428,0.0443,0.0488,0.052,0.0552,0.0532,0.0471,0.0391,0.0342,0.0227,0.0239,0.0039,0.0081,-0.0149,-0.0176,-0.0225,-0.036,-0.036,-0.0455,-0.0459,-0.0463,-0.045,0,0,0,0,0]}]]